Time,TemperatureF,DewpointF,PressureIn,WindDirection,WindDirectionDegrees,WindSpeedMPH,WindSpeedGustMPH,Humidity,HourlyPrecipIn,Conditions,Clouds,dailyrainin,SoftwareType,DateUTC
2013-11-10 00:01:00,43.0,38.8,29.91,South,180,0.0,0.0,85,0.00,,,0.00,meteohub,2013-11-10 05:01:00,
2013-11-10 00:02:00,43.0,38.8,29.90,South,180,0.0,0.0,85,0.00,,,0.00,meteohub,2013-11-10 05:02:00,
2013-11-10 00:07:00,43.0,39.4,29.89,South,180,0.0,0.0,87,0.00,,,0.00,meteohub,2013-11-10 05:07:00,
2013-11-10 00:12:00,43.0,39.0,29.90,South,180,0.0,0.0,86,0.00,,,0.00,meteohub,2013-11-10 05:12:00,
2013-11-10 00:17:00,43.0,39.4,29.89,NE,45,0.0,0.0,87,0.00,,,0.00,meteohub,2013-11-10 05:17:00,
2013-11-10 00:22:00,43.0,39.4,29.89,NE,45,0.0,0.0,87,0.00,,,0.00,meteohub,2013-11-10 05:22:00,
2013-11-10 00:27:00,43.0,39.7,29.89,SSW,203,1.0,0.0,88,0.00,,,0.00,meteohub,2013-11-10 05:27:00,
2013-11-10 00:32:00,43.0,39.9,29.88,West,270,0.0,1.0,89,0.00,,,0.00,meteohub,2013-11-10 05:32:00,
2013-11-10 00:37:00,43.0,39.9,29.88,ENE,68,2.0,2.0,89,0.00,,,0.00,meteohub,2013-11-10 05:37:00,
2013-11-10 00:42:00,43.0,40.5,29.87,West,270,0.0,2.0,91,0.00,,,0.00,meteohub,2013-11-10 05:42:00,
2013-11-10 00:47:00,43.0,40.5,29.87,SE,135,0.0,2.0,91,0.00,,,0.00,meteohub,2013-11-10 05:47:00,
2013-11-10 00:52:00,42.8,40.3,29.87,West,270,1.0,2.0,91,0.00,,,0.00,meteohub,2013-11-10 05:52:00,
2013-11-10 00:57:00,43.0,40.5,29.87,North,0,0.0,2.0,91,0.00,,,0.00,meteohub,2013-11-10 05:57:00,
2013-11-10 01:02:00,43.0,40.8,29.87,SW,225,1.0,2.0,92,0.00,,,0.00,meteohub,2013-11-10 06:02:00,
2013-11-10 01:07:00,43.0,40.8,29.87,South,180,0.0,2.0,92,0.00,,,0.00,meteohub,2013-11-10 06:07:00,
2013-11-10 01:12:00,43.0,41.2,29.86,SW,225,0.0,1.0,93,0.00,,,0.00,meteohub,2013-11-10 06:12:00,
2013-11-10 01:17:00,43.0,41.4,29.87,South,180,0.0,1.0,94,0.00,,,0.00,meteohub,2013-11-10 06:17:00,
2013-11-10 01:22:00,43.2,41.5,29.86,South,180,1.0,1.0,94,0.00,,,0.00,meteohub,2013-11-10 06:22:00,
2013-11-10 01:27:00,43.0,41.7,29.86,South,180,0.0,1.0,95,0.00,,,0.00,meteohub,2013-11-10 06:27:00,
2013-11-10 01:32:00,43.2,41.9,29.86,SW,225,0.0,1.0,95,0.00,,,0.00,meteohub,2013-11-10 06:32:00,
2013-11-10 01:37:00,43.3,42.3,29.86,South,180,2.0,2.0,96,0.00,,,0.00,meteohub,2013-11-10 06:37:00,
2013-11-10 01:42:00,43.3,42.1,29.86,South,180,1.0,4.0,95,0.00,,,0.00,meteohub,2013-11-10 06:42:00,
2013-11-10 01:48:00,43.5,42.3,29.86,South,180,0.0,4.0,95,0.00,,,0.00,meteohub,2013-11-10 06:48:00,
2013-11-10 01:53:00,43.3,42.1,29.85,South,180,0.0,4.0,95,0.00,,,0.00,meteohub,2013-11-10 06:53:00,
2013-11-10 01:58:00,43.5,41.9,29.85,South,180,0.0,2.0,94,0.00,,,0.00,meteohub,2013-11-10 06:58:00,
2013-11-10 02:03:00,43.5,42.3,29.85,South,180,1.0,2.0,95,0.00,,,0.00,meteohub,2013-11-10 07:03:00,
2013-11-10 02:08:00,43.5,42.3,29.85,South,180,0.0,2.0,95,0.00,,,0.00,meteohub,2013-11-10 07:08:00,
2013-11-10 02:13:00,43.5,42.3,29.85,SE,135,0.0,2.0,95,0.00,,,0.00,meteohub,2013-11-10 07:13:00,
2013-11-10 02:18:00,43.7,42.6,29.83,South,180,2.0,2.0,96,0.00,,,0.00,meteohub,2013-11-10 07:18:00,
2013-11-10 02:23:00,43.7,42.4,29.84,SW,225,0.0,2.0,95,0.00,,,0.00,meteohub,2013-11-10 07:23:00,
2013-11-10 02:28:00,43.9,42.6,29.84,NE,45,1.0,2.0,95,0.00,,,0.00,meteohub,2013-11-10 07:28:00,
2013-11-10 02:33:00,43.9,42.3,29.84,West,270,0.0,2.0,94,0.00,,,0.00,meteohub,2013-11-10 07:33:00,
2013-11-10 02:38:00,43.9,42.3,29.84,West,270,0.0,1.0,94,0.00,,,0.00,meteohub,2013-11-10 07:38:00,
2013-11-10 02:43:00,43.9,42.3,29.84,South,180,0.0,1.0,94,0.00,,,0.00,meteohub,2013-11-10 07:43:00,
2013-11-10 02:48:00,43.9,42.3,29.83,South,180,1.0,1.0,94,0.00,,,0.00,meteohub,2013-11-10 07:48:00,
2013-11-10 02:53:00,43.9,42.6,29.83,SW,225,0.0,2.0,95,0.00,,,0.00,meteohub,2013-11-10 07:53:00,
2013-11-10 02:58:00,43.9,42.6,29.83,South,180,0.0,2.0,95,0.00,,,0.00,meteohub,2013-11-10 07:58:00,
2013-11-10 03:03:00,44.1,42.8,29.83,SW,225,1.0,1.0,95,0.00,,,0.00,meteohub,2013-11-10 08:03:00,
2013-11-10 03:08:00,44.1,42.8,29.82,SW,225,1.0,1.0,95,0.00,,,0.00,meteohub,2013-11-10 08:08:00,
2013-11-10 03:13:00,44.1,43.0,29.82,SW,225,0.0,1.0,96,0.00,,,0.00,meteohub,2013-11-10 08:13:00,
2013-11-10 03:18:00,44.1,43.0,29.82,South,180,0.0,1.0,96,0.00,,,0.00,meteohub,2013-11-10 08:18:00,
2013-11-10 03:23:00,44.1,43.0,29.82,SW,225,1.0,2.0,96,0.00,,,0.00,meteohub,2013-11-10 08:23:00,
2013-11-10 03:28:00,44.1,43.0,29.82,SW,225,1.0,4.0,96,0.00,,,0.00,meteohub,2013-11-10 08:28:00,
2013-11-10 03:33:00,44.2,43.0,29.82,SE,135,1.0,4.0,95,0.00,,,0.00,meteohub,2013-11-10 08:33:00,
2013-11-10 03:38:00,44.1,42.8,29.81,South,180,0.0,4.0,95,0.00,,,0.00,meteohub,2013-11-10 08:38:00,
2013-11-10 03:43:00,44.1,42.8,29.81,South,180,0.0,2.0,95,0.00,,,0.00,meteohub,2013-11-10 08:43:00,
2013-11-10 03:48:00,44.1,42.4,29.81,East,90,0.0,2.0,94,0.00,,,0.00,meteohub,2013-11-10 08:48:00,
2013-11-10 03:53:00,44.1,42.4,29.81,SE,135,2.0,2.0,94,0.00,,,0.00,meteohub,2013-11-10 08:53:00,
2013-11-10 03:58:00,44.2,42.6,29.81,South,180,2.0,3.0,94,0.00,,,0.00,meteohub,2013-11-10 08:58:00,
2013-11-10 04:03:00,44.2,42.3,29.81,South,180,0.0,4.0,93,0.00,,,0.00,meteohub,2013-11-10 09:03:00,
2013-11-10 04:08:00,44.2,42.3,29.81,South,180,0.0,4.0,93,0.00,,,0.00,meteohub,2013-11-10 09:08:00,
2013-11-10 04:13:00,44.1,41.9,29.81,East,90,2.0,4.0,92,0.00,,,0.00,meteohub,2013-11-10 09:13:00,
2013-11-10 04:18:00,44.1,41.9,29.81,North,0,2.0,2.0,92,0.00,,,0.00,meteohub,2013-11-10 09:18:00,
2013-11-10 04:23:00,44.1,41.4,29.81,South,180,2.0,2.0,90,0.00,,,0.00,meteohub,2013-11-10 09:23:00,
2013-11-10 04:28:00,44.2,41.5,29.81,SW,225,0.0,3.0,90,0.00,,,0.00,meteohub,2013-11-10 09:28:00,
2013-11-10 04:33:00,44.2,41.5,29.81,SE,135,0.0,3.0,90,0.00,,,0.00,meteohub,2013-11-10 09:33:00,
2013-11-10 04:38:00,44.2,41.2,29.81,West,270,2.0,3.0,89,0.00,,,0.00,meteohub,2013-11-10 09:38:00,
2013-11-10 04:43:00,44.1,40.8,29.81,SW,225,2.0,3.0,88,0.00,,,0.00,meteohub,2013-11-10 09:43:00,
2013-11-10 04:48:00,44.2,41.0,29.81,SW,225,1.0,3.0,88,0.00,,,0.00,meteohub,2013-11-10 09:48:00,
2013-11-10 04:53:00,44.2,40.6,29.81,NE,45,2.0,3.0,87,0.00,,,0.00,meteohub,2013-11-10 09:53:00,
2013-11-10 04:58:00,44.1,40.5,29.81,North,0,0.0,3.0,87,0.00,,,0.00,meteohub,2013-11-10 09:58:00,
2013-11-10 05:03:00,43.9,40.3,29.81,North,0,0.0,2.0,87,0.00,,,0.00,meteohub,2013-11-10 10:03:00,
2013-11-10 05:08:00,43.5,40.3,29.81,SE,135,0.0,2.0,88,0.00,,,0.00,meteohub,2013-11-10 10:08:00,
2013-11-10 05:13:00,43.3,40.1,29.81,SE,135,0.0,2.0,88,0.00,,,0.00,meteohub,2013-11-10 10:13:00,
2013-11-10 05:18:00,43.2,39.9,29.81,SE,135,0.0,2.0,88,0.00,,,0.00,meteohub,2013-11-10 10:18:00,
2013-11-10 05:24:00,43.0,39.9,29.81,South,180,0.0,1.0,89,0.00,,,0.00,meteohub,2013-11-10 10:24:00,
2013-11-10 05:29:00,42.8,40.1,29.80,South,180,0.0,2.0,90,0.00,,,0.00,meteohub,2013-11-10 10:29:00,
2013-11-10 05:34:00,42.8,40.1,29.81,South,180,0.0,2.0,90,0.00,,,0.00,meteohub,2013-11-10 10:34:00,
2013-11-10 05:36:00,42.8,40.1,29.80,South,180,0.0,2.0,90,0.00,,,0.00,meteohub,2013-11-10 10:36:00,
2013-11-10 05:41:00,42.6,40.5,29.81,South,180,0.0,0.0,92,0.00,,,0.00,meteohub,2013-11-10 10:41:00,
2013-11-10 05:46:00,42.4,40.3,29.80,South,180,0.0,0.0,92,0.00,,,0.00,meteohub,2013-11-10 10:46:00,
2013-11-10 05:51:00,42.3,40.1,29.80,South,180,0.0,0.0,92,0.00,,,0.00,meteohub,2013-11-10 10:51:00,
2013-11-10 05:56:00,42.1,39.9,29.80,South,180,0.0,0.0,92,0.00,,,0.00,meteohub,2013-11-10 10:56:00,
2013-11-10 06:01:00,41.9,40.1,29.80,South,180,0.0,0.0,93,0.00,,,0.00,meteohub,2013-11-10 11:01:00,
2013-11-10 06:06:00,41.9,40.1,29.81,South,180,0.0,0.0,93,0.00,,,0.00,meteohub,2013-11-10 11:06:00,
2013-11-10 06:11:00,41.7,40.5,29.80,SW,225,0.0,0.0,95,0.00,,,0.00,meteohub,2013-11-10 11:11:00,
2013-11-10 06:16:00,41.5,39.9,29.80,SW,225,0.0,0.0,94,0.00,,,0.00,meteohub,2013-11-10 11:16:00,
2013-11-10 06:21:00,41.5,39.9,29.80,SW,225,0.0,0.0,94,0.00,,,0.00,meteohub,2013-11-10 11:21:00,
2013-11-10 06:26:00,41.5,40.3,29.80,South,180,0.0,0.0,95,0.00,,,0.00,meteohub,2013-11-10 11:26:00,
2013-11-10 06:31:00,41.5,40.5,29.80,South,180,1.0,1.0,96,0.00,,,0.00,meteohub,2013-11-10 11:31:00,
2013-11-10 06:36:00,41.4,40.3,29.80,South,180,0.0,1.0,96,0.00,,,0.00,meteohub,2013-11-10 11:36:00,
2013-11-10 06:41:00,41.4,40.3,29.80,South,180,0.0,1.0,96,0.00,,,0.00,meteohub,2013-11-10 11:41:00,
2013-11-10 06:46:00,41.4,40.1,29.80,South,180,1.0,1.0,95,0.00,,,0.00,meteohub,2013-11-10 11:46:00,
2013-11-10 06:51:00,41.4,40.1,29.80,South,180,0.0,1.0,95,0.00,,,0.00,meteohub,2013-11-10 11:51:00,
2013-11-10 06:56:00,41.4,40.1,29.79,South,180,0.0,1.0,95,0.00,,,0.00,meteohub,2013-11-10 11:56:00,
2013-11-10 07:01:00,41.5,40.3,29.80,SW,225,2.0,2.0,95,0.00,,,0.00,meteohub,2013-11-10 12:01:00,
2013-11-10 07:06:00,41.5,40.3,29.79,South,180,0.0,2.0,95,0.00,,,0.00,meteohub,2013-11-10 12:06:00,
2013-11-10 07:11:00,41.7,40.5,29.79,South,180,0.0,2.0,95,0.00,,,0.00,meteohub,2013-11-10 12:11:00,
2013-11-10 07:16:00,41.7,40.5,29.80,South,180,0.0,2.0,95,0.00,,,0.00,meteohub,2013-11-10 12:16:00,
2013-11-10 07:21:00,41.9,40.6,29.80,South,180,0.0,0.0,95,0.00,,,0.00,meteohub,2013-11-10 12:21:00,
2013-11-10 07:26:00,42.1,41.0,29.79,South,180,0.0,0.0,96,0.00,,,0.00,meteohub,2013-11-10 12:26:00,
2013-11-10 07:31:00,42.1,41.0,29.79,South,180,0.0,0.0,96,0.00,,,0.00,meteohub,2013-11-10 12:31:00,
2013-11-10 07:36:00,42.3,41.0,29.79,South,180,0.0,0.0,95,0.00,,,0.00,meteohub,2013-11-10 12:36:00,
2013-11-10 07:41:00,42.4,41.2,29.79,SW,225,0.0,1.0,95,0.00,,,0.00,meteohub,2013-11-10 12:41:00,
2013-11-10 07:46:00,42.6,41.4,29.79,ENE,68,0.0,1.0,95,0.00,,,0.00,meteohub,2013-11-10 12:46:00,
2013-11-10 07:51:00,42.8,41.2,29.80,North,0,0.0,1.0,94,0.00,,,0.00,meteohub,2013-11-10 12:51:00,
2013-11-10 07:56:00,43.0,41.7,29.79,North,0,0.0,0.0,95,0.00,,,0.00,meteohub,2013-11-10 12:56:00,
2013-11-10 08:01:00,43.3,41.7,29.79,North,0,0.0,0.0,94,0.00,,,0.00,meteohub,2013-11-10 13:01:00,
2013-11-10 08:06:00,43.7,41.7,29.79,NE,45,0.0,0.0,93,0.00,,,0.00,meteohub,2013-11-10 13:06:00,
2013-11-10 08:11:00,44.1,42.4,29.79,NE,45,0.0,0.0,94,0.00,,,0.00,meteohub,2013-11-10 13:11:00,
2013-11-10 08:17:00,44.6,43.0,29.79,NE,45,0.0,0.0,94,0.00,,,0.00,meteohub,2013-11-10 13:17:00,
2013-11-10 08:22:00,45.7,43.7,29.78,NE,45,0.0,0.0,93,0.00,,,0.00,meteohub,2013-11-10 13:22:00,
2013-11-10 08:27:00,46.9,43.9,29.78,South,180,0.0,1.0,89,0.00,,,0.00,meteohub,2013-11-10 13:27:00,
2013-11-10 08:32:00,47.8,43.0,29.79,SE,135,2.0,2.0,83,0.00,,,0.00,meteohub,2013-11-10 13:32:00,
2013-11-10 08:37:00,48.4,43.5,29.78,South,180,0.0,2.0,83,0.00,,,0.00,meteohub,2013-11-10 13:37:00,
2013-11-10 08:42:00,48.6,42.6,29.78,South,180,1.0,2.0,80,0.00,,,0.00,meteohub,2013-11-10 13:42:00,
2013-11-10 08:47:00,49.1,43.2,29.78,North,0,2.0,2.0,80,0.00,,,0.00,meteohub,2013-11-10 13:47:00,
2013-11-10 08:52:00,49.1,43.5,29.78,NE,45,2.0,2.0,81,0.00,,,0.00,meteohub,2013-11-10 13:52:00,
2013-11-10 08:57:00,48.9,43.0,29.77,East,90,2.0,2.0,80,0.00,,,0.00,meteohub,2013-11-10 13:57:00,
2013-11-10 09:02:00,49.3,43.3,29.77,South,180,1.0,2.0,80,0.00,,,0.00,meteohub,2013-11-10 14:02:00,
2013-11-10 09:07:00,49.8,43.5,29.78,South,180,1.0,2.0,79,0.00,,,0.00,meteohub,2013-11-10 14:07:00,
2013-11-10 09:12:00,50.4,43.2,29.77,NW,315,2.0,2.0,76,0.00,,,0.00,meteohub,2013-11-10 14:12:00,
2013-11-10 09:17:00,51.1,43.2,29.78,South,180,2.0,5.0,74,0.00,,,0.00,meteohub,2013-11-10 14:17:00,
2013-11-10 09:22:00,52.0,44.6,29.77,East,90,1.0,5.0,76,0.00,,,0.00,meteohub,2013-11-10 14:22:00,
2013-11-10 09:27:00,53.6,45.9,29.77,ENE,68,0.0,5.0,75,0.00,,,0.00,meteohub,2013-11-10 14:27:00,
2013-11-10 09:32:00,55.0,44.2,29.76,East,90,3.0,3.0,67,0.00,,,0.00,meteohub,2013-11-10 14:32:00,
2013-11-10 09:37:00,54.9,43.7,29.76,SW,225,2.0,3.0,66,0.00,,,0.00,meteohub,2013-11-10 14:37:00,
2013-11-10 09:42:00,54.7,43.2,29.76,SE,135,2.0,3.0,65,0.00,,,0.00,meteohub,2013-11-10 14:42:00,
2013-11-10 09:47:00,55.6,44.4,29.75,East,90,2.0,4.0,66,0.00,,,0.00,meteohub,2013-11-10 14:47:00,
2013-11-10 09:52:00,56.7,44.6,29.75,East,90,3.0,4.0,64,0.00,,,0.00,meteohub,2013-11-10 14:52:00,
2013-11-10 09:57:00,57.4,45.0,29.75,SW,225,3.0,4.0,63,0.00,,,0.00,meteohub,2013-11-10 14:57:00,
2013-11-10 10:02:00,58.3,44.1,29.75,South,180,3.0,4.0,59,0.00,,,0.00,meteohub,2013-11-10 15:02:00,
2013-11-10 10:07:00,58.5,44.6,29.75,West,270,2.0,4.0,60,0.00,,,0.00,meteohub,2013-11-10 15:07:00,
2013-11-10 10:12:00,57.4,43.7,29.74,West,270,3.0,5.0,60,0.00,,,0.00,meteohub,2013-11-10 15:12:00,
2013-11-10 10:17:00,57.0,43.7,29.74,SW,225,2.0,6.0,61,0.00,,,0.00,meteohub,2013-11-10 15:17:00,
2013-11-10 10:22:00,56.8,43.2,29.74,NE,45,6.0,6.0,60,0.00,,,0.00,meteohub,2013-11-10 15:22:00,
2013-11-10 10:27:00,56.8,43.5,29.74,West,270,2.0,6.0,61,0.00,,,0.00,meteohub,2013-11-10 15:27:00,
2013-11-10 10:32:00,57.2,43.5,29.74,North,0,5.0,7.0,60,0.00,,,0.00,meteohub,2013-11-10 15:32:00,
2013-11-10 10:37:00,57.2,43.5,29.73,NW,315,5.0,7.0,60,0.00,,,0.00,meteohub,2013-11-10 15:37:00,
2013-11-10 10:42:00,57.7,43.9,29.74,NW,315,3.0,7.0,60,0.00,,,0.00,meteohub,2013-11-10 15:42:00,
2013-11-10 10:47:00,58.3,43.5,29.73,SSE,158,10.0,10.0,58,0.00,,,0.00,meteohub,2013-11-10 15:47:00,
2013-11-10 10:52:00,58.8,44.1,29.73,North,0,8.0,10.0,58,0.00,,,0.00,meteohub,2013-11-10 15:52:00,
2013-11-10 10:57:00,59.2,44.4,29.73,NW,315,8.0,10.0,58,0.00,,,0.00,meteohub,2013-11-10 15:57:00,
2013-11-10 11:02:00,59.2,43.9,29.73,NNE,23,5.0,10.0,57,0.00,,,0.00,meteohub,2013-11-10 16:02:00,
2013-11-10 11:07:00,59.2,43.9,29.72,North,0,3.0,11.0,57,0.00,,,0.00,meteohub,2013-11-10 16:07:00,
2013-11-10 11:12:00,60.4,44.6,29.72,East,90,5.0,11.0,56,0.00,,,0.00,meteohub,2013-11-10 16:12:00,
2013-11-10 11:17:00,60.6,44.4,29.71,SW,225,5.0,11.0,55,0.00,,,0.00,meteohub,2013-11-10 16:17:00,
2013-11-10 11:22:00,60.4,44.2,29.71,NW,315,6.0,7.0,55,0.00,,,0.00,meteohub,2013-11-10 16:22:00,
2013-11-10 11:27:00,60.6,43.9,29.71,North,0,5.0,8.0,54,0.00,,,0.00,meteohub,2013-11-10 16:27:00,
2013-11-10 11:32:00,59.9,43.2,29.71,West,270,8.0,12.0,54,0.00,,,0.00,meteohub,2013-11-10 16:32:00,
2013-11-10 11:37:00,59.4,43.2,29.71,SW,225,3.0,12.0,55,0.00,,,0.00,meteohub,2013-11-10 16:37:00,
2013-11-10 11:42:00,60.1,43.9,29.71,West,270,2.0,10.0,55,0.00,,,0.00,meteohub,2013-11-10 16:42:00,
2013-11-10 11:47:00,61.2,44.4,29.71,WSW,248,2.0,8.0,54,0.00,,,0.00,meteohub,2013-11-10 16:47:00,
2013-11-10 11:52:00,60.6,42.4,29.70,NW,315,4.0,9.0,51,0.00,,,0.00,meteohub,2013-11-10 16:52:00,
2013-11-10 11:57:00,60.8,43.5,29.70,NW,315,2.0,10.0,53,0.00,,,0.00,meteohub,2013-11-10 16:57:00,
2013-11-10 12:02:00,60.1,42.4,29.71,SSE,158,4.0,10.0,52,0.00,,,0.00,meteohub,2013-11-10 17:02:00,
2013-11-10 12:07:00,59.2,40.6,29.70,SW,225,7.0,10.0,50,0.00,,,0.00,meteohub,2013-11-10 17:07:00,
2013-11-10 12:12:00,58.6,40.6,29.70,NW,315,4.0,10.0,51,0.00,,,0.00,meteohub,2013-11-10 17:12:00,
2013-11-10 12:17:00,58.8,40.8,29.69,NW,315,6.0,10.0,51,0.00,,,0.00,meteohub,2013-11-10 17:17:00,
2013-11-10 12:22:00,59.0,40.8,29.70,NE,45,5.0,7.0,51,0.00,,,0.00,meteohub,2013-11-10 17:22:00,
2013-11-10 12:27:00,59.4,40.6,29.69,NW,315,7.0,7.0,50,0.00,,,0.00,meteohub,2013-11-10 17:27:00,
2013-11-10 12:32:00,59.0,40.8,29.69,South,180,4.0,12.0,51,0.00,,,0.00,meteohub,2013-11-10 17:32:00,
2013-11-10 12:37:00,58.6,41.0,29.70,NW,315,3.0,12.0,52,0.00,,,0.00,meteohub,2013-11-10 17:37:00,
2013-11-10 12:42:00,57.9,39.9,29.69,North,0,10.0,11.0,51,0.00,,,0.00,meteohub,2013-11-10 17:42:00,
2013-11-10 12:47:00,57.4,40.5,29.70,NW,315,3.0,11.0,53,0.00,,,0.00,meteohub,2013-11-10 17:47:00,
2013-11-10 12:52:00,56.8,40.8,29.70,North,0,9.0,11.0,55,0.00,,,0.00,meteohub,2013-11-10 17:52:00,
2013-11-10 12:57:00,56.3,41.2,29.70,North,0,4.0,15.0,57,0.00,,,0.00,meteohub,2013-11-10 17:57:00,
2013-11-10 13:02:00,55.8,41.7,29.70,West,270,4.0,15.0,59,0.00,,,0.00,meteohub,2013-11-10 18:02:00,
2013-11-10 13:07:00,55.6,41.0,29.70,North,0,3.0,15.0,58,0.00,,,0.00,meteohub,2013-11-10 18:07:00,
2013-11-10 13:12:00,55.4,41.7,29.70,NNW,338,4.0,12.0,60,0.00,,,0.00,meteohub,2013-11-10 18:12:00,
2013-11-10 13:17:00,55.0,42.3,29.71,SW,225,15.0,15.0,62,0.00,,,0.00,meteohub,2013-11-10 18:17:00,
2013-11-10 13:22:00,54.1,43.9,29.73,NW,315,11.0,15.0,68,0.00,,,0.00,meteohub,2013-11-10 18:22:00,
2013-11-10 13:27:00,52.0,45.3,29.73,NW,315,5.0,15.0,78,0.00,,,0.00,meteohub,2013-11-10 18:27:00,
2013-11-10 13:32:00,50.2,45.5,29.74,NW,315,4.0,15.0,84,0.00,,,0.00,meteohub,2013-11-10 18:32:00,
2013-11-10 13:37:00,48.9,45.9,29.74,North,0,4.0,11.0,89,0.00,,,0.00,meteohub,2013-11-10 18:37:00,
2013-11-10 13:42:00,48.2,45.1,29.75,West,270,4.0,10.0,89,0.00,,,0.00,meteohub,2013-11-10 18:42:00,
2013-11-10 13:47:00,47.7,45.1,29.75,NW,315,4.0,10.0,91,0.00,,,0.00,meteohub,2013-11-10 18:47:00,
2013-11-10 13:52:00,47.1,45.1,29.76,North,0,4.0,12.0,93,0.00,,,0.00,meteohub,2013-11-10 18:52:00,
2013-11-10 13:57:00,46.6,45.5,29.76,WSW,248,2.0,12.0,96,0.01,,,0.01,meteohub,2013-11-10 18:57:00,
2013-11-10 14:02:00,45.9,45.1,29.77,North,0,4.0,12.0,97,0.01,,,0.01,meteohub,2013-11-10 19:02:00,
2013-11-10 14:07:00,45.3,45.1,29.77,NW,315,4.0,12.0,99,0.01,,,0.01,meteohub,2013-11-10 19:07:00,
2013-11-10 14:12:00,45.0,44.8,29.76,South,180,1.0,6.0,99,0.02,,,0.02,meteohub,2013-11-10 19:12:00,
2013-11-10 14:17:00,44.6,44.4,29.76,NW,315,2.0,6.0,99,0.02,,,0.02,meteohub,2013-11-10 19:17:00,
2013-11-10 14:22:00,44.6,44.4,29.76,North,0,3.0,4.0,99,0.02,,,0.02,meteohub,2013-11-10 19:22:00,
2013-11-10 14:27:00,44.8,44.6,29.76,NNW,338,4.0,4.0,99,0.02,,,0.02,meteohub,2013-11-10 19:27:00,
2013-11-10 14:32:00,44.8,44.6,29.76,South,180,1.0,4.0,99,0.02,,,0.02,meteohub,2013-11-10 19:32:00,
2013-11-10 14:37:00,44.8,44.6,29.77,SW,225,3.0,4.0,99,0.02,,,0.02,meteohub,2013-11-10 19:37:00,
2013-11-10 14:42:00,44.8,43.7,29.77,West,270,2.0,4.0,96,0.02,,,0.02,meteohub,2013-11-10 19:42:00,
2013-11-10 14:47:00,44.6,43.9,29.77,West,270,2.0,3.0,97,0.02,,,0.02,meteohub,2013-11-10 19:47:00,
2013-11-10 14:52:00,44.4,43.7,29.77,NW,315,3.0,3.0,97,0.01,,,0.02,meteohub,2013-11-10 19:52:00,
2013-11-10 14:57:00,44.4,43.7,29.77,NW,315,3.0,3.0,97,0.01,,,0.02,meteohub,2013-11-10 19:57:00,
2013-11-10 15:02:00,44.6,43.5,29.77,SW,225,2.0,4.0,96,0.01,,,0.02,meteohub,2013-11-10 20:02:00,
2013-11-10 15:07:00,44.6,43.3,29.77,North,0,2.0,4.0,95,0.01,,,0.02,meteohub,2013-11-10 20:07:00,
2013-11-10 15:12:00,44.8,43.5,29.77,East,90,2.0,4.0,95,0.00,,,0.02,meteohub,2013-11-10 20:12:00,
2013-11-10 15:17:00,45.1,43.0,29.78,NW,315,1.0,4.0,92,0.00,,,0.02,meteohub,2013-11-10 20:17:00,
2013-11-10 15:22:00,45.3,42.6,29.77,SW,225,2.0,10.0,90,0.00,,,0.02,meteohub,2013-11-10 20:22:00,
2013-11-10 15:27:00,45.5,42.8,29.78,West,270,2.0,10.0,90,0.00,,,0.02,meteohub,2013-11-10 20:27:00,
2013-11-10 15:32:00,45.7,42.6,29.78,SW,225,2.0,10.0,89,0.00,,,0.02,meteohub,2013-11-10 20:32:00,
2013-11-10 15:37:00,45.7,42.6,29.77,NE,45,2.0,4.0,89,0.00,,,0.02,meteohub,2013-11-10 20:37:00,
2013-11-10 15:42:00,45.7,42.3,29.77,South,180,2.0,4.0,88,0.00,,,0.02,meteohub,2013-11-10 20:42:00,
2013-11-10 15:47:00,45.7,42.3,29.78,NW,315,1.0,3.0,88,0.00,,,0.02,meteohub,2013-11-10 20:47:00,
2013-11-10 15:52:00,45.9,42.8,29.78,West,270,4.0,4.0,89,0.00,,,0.02,meteohub,2013-11-10 20:52:00,
2013-11-10 15:57:00,45.9,41.9,29.78,West,270,3.0,8.0,86,0.00,,,0.02,meteohub,2013-11-10 20:57:00,
2013-11-10 16:02:00,46.0,42.1,29.78,North,0,3.0,8.0,86,0.00,,,0.02,meteohub,2013-11-10 21:02:00,
2013-11-10 16:07:00,46.2,41.7,29.79,NW,315,4.0,8.0,84,0.00,,,0.02,meteohub,2013-11-10 21:07:00,
2013-11-10 16:12:00,46.4,41.5,29.79,NW,315,3.0,8.0,83,0.00,,,0.02,meteohub,2013-11-10 21:12:00,
2013-11-10 16:17:00,46.4,41.5,29.79,West,270,8.0,8.0,83,0.00,,,0.02,meteohub,2013-11-10 21:17:00,
2013-11-10 16:21:00,46.2,41.4,29.79,SSE,158,7.0,8.0,83,0.00,,,0.02,meteohub,2013-11-10 21:21:00,
2013-11-10 16:27:00,46.2,41.4,29.79,SW,225,2.0,8.0,83,0.00,,,0.02,meteohub,2013-11-10 21:27:00,
2013-11-10 16:32:00,46.0,41.2,29.79,NW,315,4.0,8.0,83,0.00,,,0.02,meteohub,2013-11-10 21:32:00,
2013-11-10 16:37:00,45.9,41.0,29.79,NW,315,4.0,8.0,83,0.00,,,0.02,meteohub,2013-11-10 21:37:00,
2013-11-10 16:42:00,46.0,41.2,29.79,NW,315,3.0,5.0,83,0.00,,,0.02,meteohub,2013-11-10 21:42:00,
2013-11-10 16:47:00,45.9,41.4,29.80,East,90,3.0,5.0,84,0.00,,,0.02,meteohub,2013-11-10 21:47:00,
2013-11-10 16:52:00,45.5,41.0,29.81,SE,135,3.0,5.0,84,0.00,,,0.02,meteohub,2013-11-10 21:52:00,
2013-11-10 16:57:00,45.3,41.0,29.81,SW,225,2.0,5.0,85,0.00,,,0.02,meteohub,2013-11-10 21:57:00,
2013-11-10 17:02:00,45.3,41.0,29.81,NW,315,2.0,4.0,85,0.00,,,0.02,meteohub,2013-11-10 22:02:00,
2013-11-10 17:07:00,45.3,41.4,29.81,SW,225,6.0,10.0,86,0.00,,,0.02,meteohub,2013-11-10 22:07:00,
2013-11-10 17:12:00,45.3,40.8,29.81,West,270,4.0,10.0,84,0.00,,,0.02,meteohub,2013-11-10 22:12:00,
2013-11-10 17:17:00,45.3,40.8,29.81,North,0,4.0,10.0,84,0.00,,,0.02,meteohub,2013-11-10 22:17:00,
2013-11-10 17:22:00,45.3,40.8,29.81,North,0,9.0,9.0,84,0.00,,,0.02,meteohub,2013-11-10 22:22:00,
2013-11-10 17:27:00,45.1,40.6,29.81,South,180,2.0,9.0,84,0.00,,,0.02,meteohub,2013-11-10 22:27:00,
2013-11-10 17:32:00,45.0,40.5,29.81,SE,135,4.0,9.0,84,0.00,,,0.02,meteohub,2013-11-10 22:32:00,
2013-11-10 17:37:00,45.0,40.5,29.82,West,270,3.0,9.0,84,0.00,,,0.02,meteohub,2013-11-10 22:37:00,
2013-11-10 17:42:00,45.0,40.1,29.82,NW,315,6.0,9.0,83,0.00,,,0.02,meteohub,2013-11-10 22:42:00,
2013-11-10 17:47:00,45.0,40.1,29.82,NE,45,4.0,9.0,83,0.00,,,0.02,meteohub,2013-11-10 22:47:00,
2013-11-10 17:52:00,45.0,40.1,29.83,North,0,7.0,9.0,83,0.00,,,0.02,meteohub,2013-11-10 22:52:00,
2013-11-10 17:57:00,44.8,40.3,29.83,SW,225,4.0,7.0,84,0.00,,,0.02,meteohub,2013-11-10 22:57:00,
2013-11-10 18:02:00,44.6,39.7,29.83,South,180,4.0,7.0,83,0.00,,,0.02,meteohub,2013-11-10 23:02:00,
2013-11-10 18:07:00,44.6,40.1,29.83,WNW,293,2.0,7.0,84,0.00,,,0.02,meteohub,2013-11-10 23:07:00,
2013-11-10 18:12:00,44.6,39.7,29.83,NE,45,2.0,4.0,83,0.00,,,0.02,meteohub,2013-11-10 23:12:00,
2013-11-10 18:17:00,44.6,39.7,29.83,South,180,3.0,4.0,83,0.00,,,0.02,meteohub,2013-11-10 23:17:00,
2013-11-10 18:22:00,44.8,39.9,29.83,South,180,4.0,4.0,83,0.00,,,0.02,meteohub,2013-11-10 23:22:00,
2013-11-10 18:27:00,44.8,39.9,29.84,West,270,2.0,7.0,83,0.00,,,0.02,meteohub,2013-11-10 23:27:00,
2013-11-10 18:32:00,44.4,39.9,29.83,NW,315,2.0,7.0,84,0.00,,,0.02,meteohub,2013-11-10 23:32:00,
2013-11-10 18:37:00,44.2,39.7,29.84,NW,315,2.0,7.0,84,0.00,,,0.02,meteohub,2013-11-10 23:37:00,
2013-11-10 18:42:00,44.2,39.4,29.84,East,90,0.0,5.0,83,0.00,,,0.02,meteohub,2013-11-10 23:42:00,
2013-11-10 18:47:00,44.1,39.6,29.85,NE,45,3.0,5.0,84,0.00,,,0.02,meteohub,2013-11-10 23:47:00,
2013-11-10 18:52:00,44.1,39.6,29.84,East,90,2.0,6.0,84,0.00,,,0.02,meteohub,2013-11-10 23:52:00,
2013-11-10 18:57:00,44.2,39.4,29.84,South,180,3.0,7.0,83,0.00,,,0.02,meteohub,2013-11-10 23:57:00,
2013-11-10 19:02:00,44.4,39.6,29.84,East,90,6.0,7.0,83,0.00,,,0.02,meteohub,2013-11-11 00:02:00,
2013-11-10 19:07:00,44.6,39.7,29.84,NW,315,4.0,7.0,83,0.00,,,0.02,meteohub,2013-11-11 00:07:00,
2013-11-10 19:12:00,44.8,39.6,29.84,North,0,4.0,7.0,82,0.00,,,0.02,meteohub,2013-11-11 00:12:00,
2013-11-10 19:17:00,44.8,39.6,29.84,West,270,8.0,8.0,82,0.00,,,0.02,meteohub,2013-11-11 00:17:00,
2013-11-10 19:22:00,44.8,39.6,29.84,North,0,3.0,8.0,82,0.00,,,0.02,meteohub,2013-11-11 00:22:00,
2013-11-10 19:27:00,44.6,39.7,29.84,NE,45,2.0,8.0,83,0.00,,,0.02,meteohub,2013-11-11 00:27:00,
2013-11-10 19:32:00,44.6,39.4,29.83,NE,45,4.0,8.0,82,0.00,,,0.02,meteohub,2013-11-11 00:32:00,
2013-11-10 19:37:00,44.8,39.6,29.84,SW,225,4.0,8.0,82,0.00,,,0.02,meteohub,2013-11-11 00:37:00,
2013-11-10 19:42:00,45.0,39.7,29.85,NW,315,4.0,8.0,82,0.00,,,0.02,meteohub,2013-11-11 00:42:00,
2013-11-10 19:47:00,45.1,39.7,29.84,West,270,5.0,8.0,81,0.00,,,0.02,meteohub,2013-11-11 00:47:00,
2013-11-10 19:52:00,45.5,39.7,29.84,WNW,293,4.0,8.0,80,0.00,,,0.02,meteohub,2013-11-11 00:52:00,
2013-11-10 19:57:00,45.7,39.6,29.84,NE,45,4.0,8.0,79,0.00,,,0.02,meteohub,2013-11-11 00:57:00,
2013-11-10 20:02:00,45.7,39.6,29.84,NW,315,4.0,8.0,79,0.00,,,0.02,meteohub,2013-11-11 01:02:00,
2013-11-10 20:07:00,45.7,39.2,29.85,SSW,203,2.0,8.0,78,0.00,,,0.02,meteohub,2013-11-11 01:07:00,
2013-11-10 20:12:00,45.5,39.0,29.84,SW,225,5.0,8.0,78,0.00,,,0.02,meteohub,2013-11-11 01:12:00,
2013-11-10 20:17:00,45.5,39.0,29.85,West,270,4.0,11.0,78,0.00,,,0.02,meteohub,2013-11-11 01:17:00,
2013-11-10 20:22:00,45.5,39.0,29.85,West,270,4.0,11.0,78,0.00,,,0.02,meteohub,2013-11-11 01:22:00,
2013-11-10 20:27:00,45.7,39.2,29.84,NE,45,2.0,11.0,78,0.00,,,0.02,meteohub,2013-11-11 01:27:00,
2013-11-10 20:32:00,45.7,39.2,29.85,NW,315,1.0,4.0,78,0.00,,,0.02,meteohub,2013-11-11 01:32:00,
2013-11-10 20:37:00,45.9,38.7,29.85,NW,315,5.0,5.0,76,0.00,,,0.02,meteohub,2013-11-11 01:37:00,
2013-11-10 20:42:00,46.2,38.5,29.85,South,180,6.0,11.0,74,0.00,,,0.02,meteohub,2013-11-11 01:42:00,
2013-11-10 20:46:00,46.2,38.5,29.85,NW,315,5.0,11.0,74,0.00,,,0.02,meteohub,2013-11-11 01:46:00,
2013-11-10 20:51:00,46.2,38.5,29.85,East,90,4.0,11.0,74,0.00,,,0.02,meteohub,2013-11-11 01:51:00,
2013-11-10 20:57:00,46.0,38.5,29.86,North,0,4.0,7.0,75,0.00,,,0.02,meteohub,2013-11-11 01:57:00,
2013-11-10 21:02:00,45.7,38.3,29.86,NW,315,3.0,8.0,75,0.00,,,0.02,meteohub,2013-11-11 02:02:00,
2013-11-10 21:07:00,45.7,38.3,29.86,NW,315,8.0,8.0,75,0.00,,,0.02,meteohub,2013-11-11 02:07:00,
2013-11-10 21:12:00,45.3,37.9,29.86,South,180,4.0,8.0,75,0.00,,,0.02,meteohub,2013-11-11 02:12:00,
2013-11-10 21:17:00,45.5,37.4,29.86,NW,315,9.0,9.0,73,0.00,,,0.02,meteohub,2013-11-11 02:17:00,
2013-11-10 21:22:00,45.9,37.8,29.86,West,270,5.0,9.0,73,0.00,,,0.02,meteohub,2013-11-11 02:22:00,
2013-11-10 21:27:00,46.0,37.6,29.86,NW,315,10.0,10.0,72,0.00,,,0.02,meteohub,2013-11-11 02:27:00,
2013-11-10 21:32:00,46.2,37.4,29.86,North,0,4.0,11.0,71,0.00,,,0.02,meteohub,2013-11-11 02:32:00,
2013-11-10 21:37:00,46.0,37.6,29.86,NW,315,5.0,11.0,72,0.00,,,0.02,meteohub,2013-11-11 02:37:00,
2013-11-10 21:42:00,45.9,37.4,29.87,NW,315,4.0,11.0,72,0.00,,,0.02,meteohub,2013-11-11 02:42:00,
2013-11-10 21:47:00,46.0,37.2,29.87,NW,315,3.0,6.0,71,0.00,,,0.02,meteohub,2013-11-11 02:47:00,
2013-11-10 21:52:00,46.0,37.2,29.87,NW,315,3.0,6.0,71,0.00,,,0.02,meteohub,2013-11-11 02:52:00,
2013-11-10 21:57:00,46.4,37.2,29.87,SE,135,11.0,11.0,70,0.00,,,0.02,meteohub,2013-11-11 02:57:00,
2013-11-10 22:02:00,46.4,37.2,29.88,NW,315,4.0,11.0,70,0.00,,,0.02,meteohub,2013-11-11 03:02:00,
2013-11-10 22:07:00,46.2,37.0,29.87,North,0,4.0,11.0,70,0.00,,,0.02,meteohub,2013-11-11 03:07:00,
2013-11-10 22:12:00,46.4,36.9,29.87,East,90,5.0,11.0,69,0.00,,,0.02,meteohub,2013-11-11 03:12:00,
2013-11-10 22:17:00,46.4,36.9,29.88,SW,225,4.0,8.0,69,0.00,,,0.02,meteohub,2013-11-11 03:17:00,
2013-11-10 22:22:00,46.2,36.7,29.88,North,0,5.0,8.0,69,0.00,,,0.02,meteohub,2013-11-11 03:22:00,
2013-11-10 22:27:00,46.2,36.7,29.87,North,0,5.0,8.0,69,0.00,,,0.02,meteohub,2013-11-11 03:27:00,
2013-11-10 22:32:00,46.6,37.0,29.88,West,270,4.0,8.0,69,0.00,,,0.02,meteohub,2013-11-11 03:32:00,
2013-11-10 22:37:00,46.6,36.5,29.87,West,270,2.0,8.0,68,0.00,,,0.02,meteohub,2013-11-11 03:37:00,
2013-11-10 22:42:00,46.4,36.5,29.88,SW,225,6.0,12.0,68,0.00,,,0.02,meteohub,2013-11-11 03:42:00,
2013-11-10 22:47:00,46.4,36.5,29.88,NW,315,4.0,12.0,68,0.00,,,0.02,meteohub,2013-11-11 03:47:00,
2013-11-10 22:52:00,46.4,36.0,29.87,NE,45,3.0,12.0,67,0.00,,,0.02,meteohub,2013-11-11 03:52:00,
2013-11-10 22:57:00,46.0,36.1,29.88,East,90,2.0,9.0,68,0.00,,,0.02,meteohub,2013-11-11 03:57:00,
2013-11-10 23:02:00,46.2,36.0,29.88,SW,225,6.0,9.0,67,0.00,,,0.02,meteohub,2013-11-11 04:02:00,
2013-11-10 23:07:00,46.2,35.4,29.88,West,270,3.0,6.0,66,0.00,,,0.02,meteohub,2013-11-11 04:07:00,
2013-11-10 23:12:00,46.0,35.2,29.88,SW,225,10.0,10.0,66,0.00,,,0.02,meteohub,2013-11-11 04:12:00,
2013-11-10 23:17:00,46.0,34.9,29.88,NW,315,4.0,10.0,65,0.00,,,0.02,meteohub,2013-11-11 04:17:00,
2013-11-10 23:22:00,46.0,34.9,29.88,SE,135,4.0,10.0,65,0.00,,,0.02,meteohub,2013-11-11 04:22:00,
2013-11-10 23:27:00,46.0,34.2,29.88,WNW,293,12.0,12.0,63,0.00,,,0.02,meteohub,2013-11-11 04:27:00,
2013-11-10 23:32:00,46.0,34.5,29.88,NW,315,3.0,12.0,64,0.00,,,0.02,meteohub,2013-11-11 04:32:00,
2013-11-10 23:37:00,45.9,34.3,29.89,North,0,9.0,12.0,64,0.00,,,0.02,meteohub,2013-11-11 04:37:00,
2013-11-10 23:42:00,45.9,34.3,29.90,West,270,6.0,12.0,64,0.00,,,0.02,meteohub,2013-11-11 04:42:00,
2013-11-10 23:47:00,45.5,34.0,29.90,North,0,3.0,9.0,64,0.00,,,0.02,meteohub,2013-11-11 04:47:00,
2013-11-10 23:52:00,45.5,34.0,29.90,WSW,248,4.0,11.0,64,0.00,,,0.02,meteohub,2013-11-11 04:52:00,
2013-11-10 23:57:00,45.5,34.0,29.90,NW,315,6.0,11.0,64,0.00,,,0.02,meteohub,2013-11-11 04:57:00,